FW2726 Weather Reports


Display with metric or nautical units.
time (UTC)temp
F
wind
direction
speed
MPH
gust
MPH
rain 1hr
in
rain 24hr
in
rain mn
in
humidity
%
barometer
mb
20260902043104 56 141 9.0 15.0 0.00 0.00 0.00 77 1010.5
20260902041610 56 149 8.0 13.0 0.00 0.00 0.00 78 1010.7
20260902040108 56 141 8.0 12.0 0.00 0.00 0.00 79 1010.7
20260902034607 56 134 8.0 14.0 0.00 0.00 0.00 79 1010.4
20260902033112 57 144 7.0 12.0 0.00 0.00 0.00 78 1010.3
20260902031609 57 140 8.0 12.0 0.00 0.00 0.00 77 1010.4
20260902030116 57 125 7.0 11.0 0.00 0.00 0.00 76 1010.2
20260902024609 58 144 6.0 10.0 0.00 0.00 0.00 75 1010.2
20260902023115 60 139 6.0 10.0 0.00 0.00 0.00 72 1010.1
20260902021621 61 135 5.0 8.0 0.00 0.00 0.00 69 1010.1
20260902020104 63 131 6.0 8.0 0.00 0.00 0.00 66 1010.2
20260902014604 66 119 4.0 7.0 0.00 0.00 0.00 62 1010.2
20260902013117 69 133 4.0 7.0 0.00 0.00 0.00 58 1010.2
20260902011605 71 139 4.0 9.0 0.00 0.00 0.00 54 1010.2
20260902010105 74 147 6.0 11.0 0.00 0.00 0.00 50 1010.3
20260902004614 75 145 7.0 12.0 0.00 0.00 0.00 51 1010.3
20260902003110 75 139 8.0 14.0 0.00 0.00 0.00 49 1010.3
20260902001606 75 158 8.0 12.0 0.00 0.00 0.00 49 1010.4
20260902000105 76 166 8.0 14.0 0.00 0.00 0.00 47 1010.4
20260901234617 77 133 8.0 14.0 0.00 0.00 0.00 46 1010.3
20260901233107 78 168 8.0 14.0 0.00 0.00 0.00 45 1010.4
20260901231605 78 127 8.0 14.0 0.00 0.00 0.00 48 1010.5
20260901230139 78 142 8.0 13.0 0.00 0.00 0.00 41 1010.5
20260901224605 79 165 9.0 15.0 0.00 0.00 0.00 42 1010.6
20260901223120 79 142 9.0 15.0 0.00 0.00 0.00 42 1010.5
20260901221605 79 118 8.0 15.0 0.00 0.00 0.00 41 1010.6
20260901220108 79 158 6.0 12.0 0.00 0.00 0.00 42 1010.7
20260901214606 79 141 7.0 17.0 0.00 0.00 0.00 42 1010.9
20260901213103 79 127 9.0 16.0 0.00 0.00 0.00 41 1011.0
20260901211604 78 160 8.0 14.0 0.00 0.00 0.00 42 1011.2
20260901210106 78 201 6.0 12.0 0.00 0.00 0.00 43 1011.3
20260901204605 77 185 5.0 10.0 0.00 0.00 0.00 37 1011.3
20260901203123 77 201 1.0 9.0 0.00 0.00 0.00 37 1011.4
20260901201612 76 231 3.0 9.0 0.00 0.00 0.00 39 1011.5
20260901200109 76 178 6.0 12.0 0.00 0.00 0.00 40 1011.6
20260901194608 76 139 4.0 12.0 0.00 0.00 0.00 42 1011.6
20260901193109 75 222 7.0 13.0 0.00 0.00 0.00 46 1011.8
20260901191604 74 189 7.0 14.0 0.00 0.00 0.00 42 1011.9
20260901190112 73 236 6.0 12.0 0.00 0.00 0.00 49 1012.1
20260901184604 72 204 6.0 11.0 0.00 0.00 0.00 46 1012.4
20260901183110 72 244 6.0 12.0 0.00 0.00 0.00 51 1012.4
20260901181608 71 199 8.0 14.0 0.00 0.00 0.00 53 1012.4
20260901180107 71 185 5.0 11.0 0.00 0.00 0.00 54 1012.5
20260901174606 70 223 6.0 11.0 0.00 0.00 0.00 57 1012.5
20260901173112 69 237 8.0 12.0 0.00 0.00 0.00 59 1012.9
20260901171620 69 169 6.0 10.0 0.00 0.00 0.00 59 1013.0
20260901170146 68 196 7.0 15.0 0.00 0.00 0.00 62 1013.0
20260901164635 67 231 5.0 11.0 0.00 0.00 0.00 62 1013.0
20260901163108 66 184 5.0 10.0 0.00 0.00 0.00 65 1013.0
20260901161608 65 170 5.0 10.0 0.00 0.00 0.00 70 1013.0
20260901160108 64 209 5.0 9.0 0.00 0.00 0.00 73 1013.1
20260901154605 62 204 5.0 9.0 0.00 0.00 0.00 76 1013.2
20260901153114 60 188 4.0 7.0 0.00 0.00 0.00 87 1013.2
20260901151605 58 187 4.0 6.0 0.00 0.00 0.00 94 1013.2
20260901150108 56 191 4.0 7.0 0.00 0.00 0.00 96 1013.2
20260901144607 54 177 3.0 6.0 0.00 0.00 0.00 96 1013.0
20260901143107 52 202 3.0 5.0 0.00 0.00 0.00 96 1013.1
20260901141610 51 173 2.0 6.0 0.00 0.00 0.00 96 1013.0
20260901140107 49 182 4.0 6.0 0.00 0.00 0.00 96 1013.0
20260901134604 47 202 3.0 5.0 0.00 0.02 0.00 96 1012.9
20260901133105 46 214 3.0 6.0 0.00 0.02 0.00 95 1012.7
20260901131612 44 193 3.0 5.0 0.00 0.02 0.00 95 1012.6
20260901130106 44 193 4.0 5.0 0.00 0.02 0.00 95 1012.5
20260901124608 43 193 3.0 4.0 0.00 0.06 0.00 94 1012.4
20260901123106 43 193 4.0 5.0 0.00 0.06 0.00 94 1012.4
20260901121614 43 193 3.0 5.0 0.00 0.06 0.00 94 1012.3
20260901120124 43 193 3.0 4.0 0.00 0.06 0.00 94 1011.9
20260901114605 43 193 4.0 5.0 0.00 0.10 0.00 94 1012.0
20260901113104 43 193 2.0 3.0 0.00 0.10 0.00 93 1012.0
20260901111613 44 193 3.0 4.0 0.00 0.10 0.00 94 1012.0
20260901110105 45 193 4.0 5.0 0.00 0.10 0.00 94 1012.1
20260901104603 45 224 2.0 4.0 0.00 0.14 0.00 94 1012.0
20260901103129 45 224 3.0 4.0 0.00 0.14 0.00 94 1012.0
20260901101606 45 224 3.0 4.0 0.00 0.14 0.00 94 1011.9
20260901100106 45 224 2.0 4.0 0.00 0.14 0.00 93 1011.8
20260901094603 45 210 1.0 4.0 0.00 0.24 0.00 93 1011.7
20260901093129 45 199 2.0 4.0 0.00 0.24 0.00 93 1011.8
20260901091608 45 196 2.0 4.0 0.00 0.24 0.00 93 1011.9
20260901084605 46 196 3.0 5.0 0.00 0.28 0.00 93 1011.8
20260901083108 46 225 3.0 5.0 0.00 0.28 0.00 93 1011.8
20260901081615 46 244 2.0 3.0 0.00 0.28 0.00 93 1011.8
20260901080106 46 244 2.0 3.0 0.00 0.28 0.00 93 1011.6
20260901074606 46 244 2.0 3.0 0.00 0.28 0.00 92 1011.7
20260901073105 45 244 2.0 3.0 0.00 0.28 0.00 91 1011.7
20260901071608 46 0 0.0 0.0 0.00 0.28 0.00 91 1011.6
20260901070112 47 0 0.0 0.0 0.00 0.28 0.00 90 1011.5
20260901064608 48 0 1.0 2.0 0.00 0.60 0.00 90 1011.5
20260901063109 48 244 1.0 4.0 0.00 0.60 0.00 89 1011.4
20260901061608 49 244 2.0 3.0 0.00 0.60 0.00 89 1011.5
20260901060106 49 244 2.0 3.0 0.00 0.60 0.00 88 1011.4
20260901054607 50 244 2.0 4.0 0.00 0.95 0.60 88 1011.4
20260901053124 50 258 2.0 4.0 0.00 0.95 0.60 89 1011.1
20260901051604 50 258 2.0 3.0 0.00 0.95 0.60 89 1011.0
20260901050108 50 258 2.0 4.0 0.00 0.95 0.60 88 1011.1
20260901044605 50 258 2.0 3.0 0.00 1.07 0.60 89 1011.1